Hourly Data Report for October 27, 2013

All times are specified in Local Standard Time (LST). Add 1 hour to adjust for Daylight Saving Time where and when it is observed.

KUGAARUK CLIMATE
NUNAVUT

68°32'15.060" N
89°47'47.020" W
15.80 m
2303094
71407
NBB

Download Data

Hourly Data (October 2013)
Hourly Data Report for October 27, 2013
Temp Definition
°C
Dew Point Temp Definition
°C
Rel Hum Definition
%
Wind Dir Definition
10's deg

Wind Spd Definition
km/h
Visibility Definition
km
Stn Press Definition
kPa
Hmdx Definition


Wind Chill Definition


Weather Definition


TIME
00:00 -13.6 -16.6 78 29 11   100.87   -20 LegendNANA
01:00 -13.9 -17.3 75 31 26   100.80   -24 LegendNANA
02:00 -12.9 -15.2 83 30 30   100.82   -23 LegendNANA
03:00 -11.8 -13.7 86 30 33   100.77   -22 LegendNANA
04:00 -11.3 -14.0 80 31 30   100.78   -21 LegendNANA
05:00 -11.1 -13.8 80 31 32   100.74   -21 LegendNANA
06:00 -11.1 -14.2 78 31 39   100.68   -22 LegendNANA
07:00 -11.3 -14.4 78 31 26   100.70   -21 LegendNANA
08:00 -12.1 -15.6 75 32 33   100.69   -23 LegendNANA
09:00 -13.1 -16.6 75 31 30   100.68   -24 LegendNANA
10:00 -13.2 -16.3 77 32 32   100.67   -24 LegendNANA
11:00 -13.6 -17.2 74 31 32   100.70   -25 LegendNANA
12:00 -13.8 -17.2 75 31 33   100.67   -25 LegendNANA
13:00 -13.7 -17.0 76 31 32   100.67   -25 LegendNANA
14:00 -14.2 -17.4 77 32 32   100.68   -25 LegendNANA
15:00 -13.7 -16.6 79 32 33   100.70   -25 LegendNANA
16:00 -15.3 -18.3 78 31 28   100.73   -26 LegendNANA
17:00 -15.3 -18.5 76 31 28   100.75   -26 LegendNANA
18:00 -14.8 -18.1 76 30 22   100.72   -24 LegendNANA
19:00 -13.9 -17.3 75 30 20   100.64   -23 LegendNANA
20:00 -12.8 -16.2 76 31 26   100.55   -23 LegendNANA
21:00 -12.1 -15.5 76 30 24   100.48   -21 LegendNANA
22:00 -12.4 -15.1 80 28 24   100.41   -22 LegendNANA
23:00 -12.2 -15.4 77 31 22   100.39   -21 LegendNANA

Notes on Data Quality.

Legend

  • E = Estimated
  • M = Missing
  • NA = Not Available
  • ‡ = Partner data that is not subject to review by the National Climate Archives
Date modified: